[[{"header":{"parameterUnit":"m.s-1","parameterCategory":1,"la1":30.2991,"la2":30.254,"lo1":-89.0895,"lo2":-89.0444,"dy":0.0017,"dx":0.0017,"nx":28,"ny":28,"refTime":"2025-05-31T03:00:00:Z","depth":0,"parameterNumber":2,"parameterNumberName":"U-component_of_WINDS"},"data":[0,0,0,0,0,0,0,0,0,0,0,0,0,0,0,0,0,0,0,0,0,0,0,0,0,0,0,0,0,0,0,0,0,0,0,0,0,0,0,0,0,0,0,0,0,0,0,0,0,0,0,0,0,0,0,0,0,0,0.5241,0.5241,0,0.5154,0.5153,0.5152,0.5104,0.5104,0.5104,0.5104,0.5011,0.5008,0.5006,0,0,0,0,0,0,0,0,0,0,0,0,0,0.5363,0.5361,0.5242,0.524,0.5239,0.5154,0.5153,0.5152,0.5104,0.5104,0.5104,0.5104,0.5011,0.5009,0.5006,0,0,0,0,0,0,0,0,0,0,0,0,0,0.5297,0.5361,0.5242,0.5206,0.5201,0.5155,0.5153,0.5152,0.5104,0.5104,0.5104,0.5104,0.5012,0.5009,0.5005,0.4987,0,0,0.4994,0.4993,0,0,0,0,0,0,0,0,0.53,0.5292,0.5212,0.5208,0.5203,0.514,0.5162,0.5096,0.5105,0.5141,0.5104,0.5104,0.5054,0.5047,0.503,0.4982,0.4978,0.4994,0.4992,0.499,0.4989,0,0,0,0,0,0,0,0.5305,0.5296,0.5207,0.5211,0.5205,0.5192,0.5183,0.5149,0.5099,0.5138,0.5134,0.5125,0.5051,0.5034,0.5028,0.4977,0.4994,0.4991,0.4989,0.4987,0.4909,0.4909,0,0,0,0,0,0,0.5316,0.53,0.521,0.5204,0.5253,0.519,0.518,0.516,0.51,0.509,0.5125,0.5123,0.504,0.5032,0.5024,0.4999,0.499,0.4987,0.4985,0.4909,0.4909,0.491,0,0,0,0,0,0,0.5319,0.5309,0.5213,0.5251,0.5238,0.5189,0.5167,0.5159,0.5142,0.509,0.508,0.5117,0.504,0.5029,0.4997,0.4995,0.4985,0.4982,0.4909,0.4909,0.4909,0.4947,0,0,0,0,0,0,0.5323,0.531,0.5303,0.5251,0.5236,0.5188,0.5167,0.5157,0.5136,0.5133,0.508,0.5071,0.5039,0.5002,0.4993,0.499,0.4979,0.4909,0.4909,0.4909,0.4946,0.4948,0.4951,0,0,0,0,0,0.5327,0.5316,0.5303,0.5292,0.5227,0.5188,0.5179,0.5144,0.5136,0.5128,0.5095,0.5072,0.4997,0.4999,0.4989,0.4984,0.4909,0.4909,0.4909,0.4944,0.4948,0.495,0,0,0,0,0,0,0.5366,0.5308,0.5293,0.5265,0.5232,0.518,0.5169,0.5148,0.5115,0.5113,0.507,0.5058,0.503,0.5003,0.5008,0.4963,0.4951,0.4949,0.4981,0.4983,0.4986,0.4992,0.4976,0,0,0,0,0,0.5372,0.5347,0.5297,0.5277,0.5262,0.5219,0.52,0.5176,0.5139,0.5125,0.5089,0.5053,0.5021,0.5001,0.4969,0.4942,0.493,0.4934,0.4936,0.4938,0.4937,0.4921,0.4922,0.491,0.491,0.491,0,0,0.5383,0.5348,0.5335,0.5284,0.5256,0.523,0.5207,0.518,0.5159,0.512,0.5087,0.506,0.5017,0.4988,0.4973,0.4965,0.4938,0.4939,0.4941,0.4938,0.4921,0.4922,0.4923,0.491,0.491,0.491,0,0,0.5389,0.5361,0.5342,0.5314,0.5272,0.5244,0.5239,0.519,0.5171,0.5138,0.5109,0.5083,0.5029,0.5,0.4978,0.4976,0.4954,0.4967,0.4979,0.4964,0.4965,0.4965,0.4964,0.4964,0.4966,0.4966,0.4966,0,0.5408,0.5368,0.5334,0.5309,0.5287,0.5253,0.5232,0.5207,0.5156,0.5141,0.5134,0.5066,0.5035,0.4998,0.4998,0.4981,0.4974,0.4972,0.4968,0.4968,0.4968,0.4966,0.4966,0.4967,0.4967,0.4967,0.4967,0,0.5393,0.5366,0.5355,0.5309,0.5286,0.5264,0.5224,0.5205,0.5184,0.5156,0.5123,0.5085,0.5044,0.5034,0.5012,0.4994,0.4991,0.4976,0.4963,0.4972,0.4969,0.4968,0.497,0.4969,0.4969,0.4968,0,0,0.5419,0.5356,0.5353,0.5331,0.5283,0.5261,0.5237,0.5199,0.5184,0.515,0.5128,0.5084,0.5071,0.5046,0.5021,0.5008,0.5008,0.4995,0.4993,0.4998,0.4986,0.4996,0.4996,0.4994,0.4994,0.4993,0.4989,0,0.5418,0.5375,0.5344,0.5312,0.5286,0.5254,0.5233,0.52,0.5174,0.5148,0.5118,0.5088,0.5073,0.5058,0.5044,0.5011,0.5005,0.5011,0.4972,0.4971,0.4982,0.4995,0.5006,0.5003,0.4988,0.4988,0.4988,0,0.5411,0.5381,0.5347,0.5302,0.529,0.5272,0.5235,0.5211,0.5174,0.5156,0.5129,0.5104,0.5076,0.5066,0.5027,0.5032,0.5014,0.4996,0.4995,0.4989,0.4979,0.4988,0.5002,0.5001,0.4986,0.4986,0.4986,0,0.5433,0.5384,0.5357,0.534,0.5288,0.5276,0.5253,0.5216,0.5195,0.5163,0.5149,0.5114,0.5094,0.5067,0.5032,0.5028,0.4996,0.4984,0.4979,0.498,0.4973,0.4974,0.4983,0.4963,0.4963,0.4963,0.4963,0,0.5435,0.5415,0.5367,0.535,0.5327,0.5291,0.5269,0.5243,0.5211,0.5188,0.5158,0.5137,0.5093,0.5066,0.5039,0.5011,0.5002,0.4986,0.4978,0.4988,0.499,0.4974,0.4973,0.4963,0.4963,0.4963,0.4963,0,0.5455,0.5422,0.5391,0.5345,0.5333,0.5318,0.5278,0.526,0.5233,0.5205,0.5196,0.5153,0.512,0.5084,0.5038,0.502,0.4993,0.4983,0.5006,0.5002,0.4999,0.5,0.4998,0.4996,0.4979,0.498,0.498,0,0.5458,0.5442,0.5395,0.5379,0.5358,0.5331,0.5311,0.5275,0.5255,0.5212,0.5199,0.5165,0.5135,0.5085,0.5049,0.5014,0.5002,0.5004,0.4997,0.5007,0.5001,0.5002,0.5,0.5006,0.5006,0.5007,0.5007,0,0.5466,0.5451,0.5423,0.5391,0.5368,0.534,0.531,0.5298,0.5256,0.5235,0.5202,0.518,0.5135,0.51,0.5062,0.5037,0.5014,0.501,0.5007,0.5016,0.5029,0.5021,0.5011,0.501,0.5009,0.5009,0.5009,0.5009,0.5477,0.5462,0.5427,0.5397,0.5372,0.5346,0.5327,0.5299,0.5271,0.5232,0.5213,0.518,0.5144,0.509,0.5066,0.5039,0.5032,0.5028,0.5027,0.5026,0.5028,0.5035,0.5032,0.5032,0.5032,0.5032,0.5032,0,0.5482,0.5459,0.5433,0.5393,0.537,0.5354,0.5321,0.5302,0.5274,0.5243,0.5215,0.5177,0.5145,0.5107,0.5072,0.5057,0.5046,0.5049,0.5049,0.5044,0.5037,0.5043,0.5059,0.5059,0.5059,0.5059,0.5059,0.5059,0.5483,0.5456,0.5437,0.5398,0.5374,0.5343,0.5326,0.5301,0.5276,0.5236,0.5209,0.5185,0.5151,0.5113,0.5082,0.5072,0.506,0.5066,0.5052,0.5047,0.5044,0.5042,0.5047,0.5064,0.5064,0.5061,0.5061,0.5061]},{"header":{"parameterUnit":"m.s-1","parameterCategory":1,"la1":30.2991,"la2":30.254,"lo1":-89.0895,"lo2":-89.0444,"dy":0.0017,"dx":0.0017,"nx":28,"ny":28,"refTime":"2025-05-31T03:00:00:Z","depth":0,"parameterNumber":3,"parameterNumberName":"V-component_of_WINDS"},"data":[0,0,0,0,0,0,0,0,0,0,0,0,0,0,0,0,0,0,0,0,0,0,0,0,0,0,0,0,0,0,0,0,0,0,0,0,0,0,0,0,0,0,0,0,0,0,0,0,0,0,0,0,0,0,0,0,0,0,2.7054,2.7054,0,2.7051,2.7051,2.7051,2.6923,2.6919,2.6916,2.6913,2.691,2.6913,2.6916,0,0,0,0,0,0,0,0,0,0,0,0,0,2.6945,2.6947,2.7054,2.7054,2.7054,2.7051,2.7051,2.7051,2.6923,2.6919,2.6915,2.6911,2.6909,2.6913,2.6916,0,0,0,0,0,0,0,0,0,0,0,0,0,2.6972,2.6948,2.7054,2.699,2.6984,2.7051,2.7051,2.7051,2.6924,2.6919,2.6914,2.6909,2.6908,2.6912,2.6917,2.7045,0,0,2.6931,2.6933,0,0,0,0,0,0,0,0,2.6971,2.6976,2.6999,2.6994,2.6988,2.6982,2.7011,2.7049,2.6925,2.6947,2.6913,2.6907,2.6938,2.694,2.695,2.7045,2.7045,2.6931,2.6934,2.6936,2.6937,0,0,0,0,0,0,0,2.6969,2.6976,2.7053,2.7,2.6993,2.696,2.6958,2.7018,2.6971,2.6945,2.6935,2.6937,2.6934,2.6946,2.6949,2.7045,2.6931,2.6935,2.6938,2.694,2.7239,2.7244,0,0,0,0,0,0,2.6976,2.6975,2.7053,2.7053,2.6967,2.6966,2.6964,2.6989,2.697,2.6962,2.6941,2.6931,2.6941,2.6944,2.6949,2.7094,2.6936,2.694,2.6943,2.7234,2.724,2.7246,0,0,0,0,0,0,2.6974,2.6984,2.7053,2.7011,2.7017,2.6973,2.7002,2.6992,2.7004,2.6967,2.6957,2.6962,2.6937,2.6942,2.7021,2.7092,2.6942,2.6946,2.7228,2.7236,2.7243,2.7388,0,0,0,0,0,0,2.6972,2.6984,2.7034,2.7013,2.702,2.7127,2.7007,2.6995,2.7012,2.6998,2.6984,2.6977,2.6934,2.7015,2.7025,2.7095,2.695,2.7221,2.7231,2.724,2.7376,2.7399,2.7419,0,0,0,0,0,2.6968,2.7076,2.7037,2.7047,2.7081,2.7131,2.7135,2.7082,2.7018,2.7066,2.7042,2.6978,2.7083,2.7024,2.7035,2.7107,2.7216,2.7228,2.724,2.7367,2.7395,2.7419,0,0,0,0,0,0,2.7108,2.7073,2.7029,2.7134,2.7136,2.7109,2.7169,2.7115,2.7136,2.7123,2.7056,2.7054,2.7142,2.7133,2.7068,2.7228,2.7138,2.7152,2.7231,2.7257,2.7278,2.7278,2.6954,0,0,0,0,0,2.7151,2.7195,2.7161,2.7257,2.726,2.7215,2.7235,2.7193,2.7193,2.7194,2.7175,2.7178,2.721,2.7233,2.7262,2.7375,2.7367,2.7429,2.7451,2.7469,2.7482,2.7536,2.7561,2.7284,2.7284,2.7284,0,0,2.7241,2.7226,2.7259,2.7284,2.7282,2.7326,2.7217,2.7271,2.7302,2.7202,2.7274,2.726,2.7258,2.7353,2.7394,2.7348,2.7556,2.7484,2.7498,2.7501,2.755,2.7577,2.76,2.7292,2.7291,2.729,0,0,2.7425,2.7421,2.7497,2.7496,2.7492,2.746,2.7478,2.7459,2.7445,2.7516,2.744,2.7477,2.7537,2.7537,2.7545,2.7724,2.7665,2.7736,2.7847,2.7901,2.7923,2.7942,2.8002,2.8025,2.7749,2.7749,2.775,0,2.7537,2.7603,2.7544,2.7601,2.7612,2.7522,2.7597,2.7599,2.7605,2.7615,2.7563,2.7632,2.7625,2.7716,2.7759,2.777,2.7786,2.7737,2.7924,2.7943,2.796,2.8017,2.804,2.7758,2.7757,2.7756,2.7755,0,2.7737,2.7784,2.7846,2.7851,2.787,2.7937,2.7886,2.7912,2.7869,2.7842,2.7913,2.79,2.7922,2.7941,2.79,2.8025,2.7996,2.7936,2.7844,2.7995,2.8048,2.8069,2.777,2.7767,2.7764,2.7762,0,0,2.8013,2.7981,2.8005,2.8004,2.7991,2.8025,2.8086,2.8106,2.8128,2.8135,2.8182,2.8232,2.8174,2.8183,2.8141,2.8188,2.8327,2.8121,2.812,2.8157,2.8459,2.8503,2.853,2.8287,2.8291,2.8295,2.8458,0,2.8189,2.829,2.8236,2.8344,2.8383,2.8295,2.8347,2.8344,2.832,2.8349,2.8322,2.8357,2.8281,2.8284,2.8328,2.8301,2.8386,2.8289,2.8328,2.8331,2.8329,2.8558,2.8605,2.876,2.8479,2.8482,2.8485,0,2.8408,2.8421,2.8532,2.8506,2.8521,2.8569,2.858,2.861,2.8603,2.8582,2.859,2.8535,2.859,2.85,2.8574,2.8509,2.8522,2.8511,2.8515,2.8515,2.8416,2.8561,2.8809,2.8831,2.8517,2.8515,2.8512,0,2.8592,2.8638,2.8708,2.8711,2.8685,2.8719,2.871,2.8698,2.8712,2.8722,2.873,2.8748,2.8757,2.8771,2.8722,2.8661,2.8801,2.8708,2.8783,2.8784,2.8815,2.8813,2.9066,2.8828,2.8828,2.8827,2.8827,0,2.8793,2.8864,2.879,2.8834,2.8908,2.8845,2.8921,2.8902,2.8892,2.8928,2.8855,2.8891,2.8825,2.8854,2.8815,2.888,2.8886,2.8868,2.8857,2.8874,2.8875,2.888,2.8867,2.8833,2.8832,2.8831,2.883,0,2.9012,2.8966,2.9036,2.9004,2.8997,2.9054,2.9025,2.9063,2.9032,2.908,2.9087,2.9039,2.9069,2.9021,2.9046,2.902,2.9109,2.9082,2.9111,2.9102,2.9178,2.9171,2.9441,2.9472,2.9217,2.9219,2.9222,0,2.9142,2.9193,2.9165,2.9183,2.9177,2.9209,2.9222,2.9161,2.9177,2.917,2.9209,2.9232,2.9247,2.9298,2.9266,2.9283,2.9255,2.9348,2.9257,2.9271,2.9252,2.9249,2.9252,2.9366,2.9369,2.9372,2.9374,0,2.9376,2.9349,2.937,2.9383,2.9399,2.9406,2.9408,2.9428,2.9363,2.9384,2.9413,2.9424,2.9448,2.9471,2.948,2.9469,2.941,2.9403,2.942,2.9437,2.945,2.9441,2.9159,2.9397,2.9395,2.9393,2.9392,2.9391,2.9552,2.9591,2.9576,2.9601,2.9595,2.9597,2.9629,2.9601,2.9624,2.9637,2.9599,2.9636,2.9624,2.9629,2.9624,2.9651,2.961,2.9637,2.9643,2.965,2.9661,2.9448,2.9653,2.9653,2.9652,2.9651,2.9651,0,2.9779,2.9764,2.9787,2.979,2.9808,2.975,2.9748,2.9767,2.98,2.9793,2.9808,2.9839,2.986,2.9828,2.9843,2.9871,2.9844,2.9876,2.9873,2.987,2.9698,2.968,2.9897,2.9897,2.9897,2.9897,2.9897,2.9897,2.9899,2.9962,2.9933,2.999,2.9974,3.0008,3.0011,3.0012,3.0005,3.0043,3.0059,3.0037,3.0019,3.0032,3.0048,3.0038,3.0046,3.0087,3.0068,2.9907,2.9883,2.986,2.9842,3.009,3.0091,3.0237,3.0238,3.0239]}]]